FW5704 Weather Reports


Display with metric or nautical units.
time (UTC)temp
F
wind
direction
speed
MPH
gust
MPH
rain 1hr
in
rain 24hr
in
rain mn
in
humidity
%
barometer
mb
20260509171035 67 258 3.0 9.0 0.00 0.00 0.00 69 1012.5
20260509170535 66 271 2.0 7.0 0.00 0.00 0.00 70 1012.6
20260509170047 67 266 2.0 9.0 0.00 0.00 0.00 69 1012.6
20260509165533 66 273 1.0 10.0 0.00 0.00 0.00 71 1012.5
20260509165035 65 256 4.0 10.0 0.00 0.00 0.00 71 1012.7
20260509164549 65 184 2.0 9.0 0.00 0.00 0.00 72 1012.7
20260509164033 64 273 1.0 11.0 0.00 0.00 0.00 73 1013.0
20260509163534 65 258 2.0 11.0 0.00 0.00 0.00 74 1013.2
20260509163045 64 153 1.0 10.0 0.00 0.00 0.00 72 1013.3
20260509162535 65 271 4.0 10.0 0.00 0.00 0.00 71 1013.3
20260509162037 64 248 2.0 9.0 0.00 0.00 0.00 75 1013.3
20260509161541 64 255 4.0 9.0 0.00 0.00 0.00 75 1013.1
20260509161034 63 227 1.0 9.0 0.00 0.00 0.00 77 1013.1
20260509160534 63 262 2.0 9.0 0.00 0.00 0.00 77 1013.3
20260509160047 63 250 3.0 9.0 0.00 0.00 0.00 78 1013.4
20260509155533 62 257 2.0 9.0 0.00 0.00 0.00 78 1013.3
20260509155033 62 258 2.0 9.0 0.00 0.00 0.00 79 1013.4
20260509154549 62 261 4.0 9.0 0.00 0.00 0.00 78 1013.2
20260509154034 62 246 2.0 9.0 0.00 0.00 0.00 81 1013.3
20260509153533 61 259 1.0 9.0 0.00 0.00 0.00 80 1013.4
20260509153044 61 254 3.0 7.0 0.00 0.00 0.00 82 1013.4
20260509152534 61 255 2.0 10.0 0.00 0.00 0.00 82 1013.5
20260509152034 60 259 1.0 10.0 0.00 0.00 0.00 82 1013.5
20260509151544 61 257 1.0 4.0 0.00 0.00 0.00 83 1013.5
20260509151034 60 249 1.0 4.0 0.00 0.00 0.00 83 1013.5
20260509150534 60 0 0.0 4.0 0.00 0.00 0.00 84 1013.5
20260509145533 59 257 2.0 5.0 0.00 0.00 0.00 84 1013.4
20260509145036 59 252 1.0 5.0 0.00 0.00 0.00 86 1013.2
20260509144644 58 0 0.0 3.0 0.00 0.00 0.00 87 1013.2
20260509144037 58 0 1.0 3.0 0.00 0.00 0.00 87 1013.1
20260509143534 58 278 0.0 3.0 0.00 0.00 0.00 89 1013.0
20260509143050 57 281 0.0 3.0 0.00 0.00 0.00 90 1012.9
20260509142536 57 0 0.0 1.0 0.00 0.00 0.00 91 1012.9
20260509142035 56 0 0.0 1.0 0.00 0.00 0.00 92 1012.8
20260509141550 56 0 0.0 0.0 0.00 0.00 0.00 93 1012.8
20260509141035 55 0 0.0 0.0 0.00 0.00 0.00 93 1013.0
20260509140535 55 0 0.0 0.0 0.00 0.00 0.00 93 1013.1
20260509140043 55 0 0.0 0.0 0.00 0.00 0.00 93 1012.9
20260509135534 55 0 0.0 0.0 0.00 0.00 0.00 93 1012.9
20260509135034 55 0 0.0 0.0 0.00 0.00 0.00 93 1012.8
20260509134549 54 0 0.0 0.0 0.00 0.00 0.00 94 1012.9
20260509134033 54 0 0.0 0.0 0.00 0.00 0.00 93 1012.8
20260509133536 54 0 0.0 0.0 0.00 0.00 0.00 93 1012.8
20260509133052 54 0 0.0 0.0 0.00 0.00 0.00 93 1012.8
20260509132533 54 0 0.0 0.0 0.00 0.00 0.00 94 1012.9
20260509132036 54 0 0.0 0.0 0.00 0.00 0.00 94 1012.8
20260509131546 54 0 0.0 0.0 0.00 0.00 0.00 93 1012.8
20260509131033 53 0 0.0 0.0 0.00 0.00 0.00 93 1012.8
20260509130534 53 0 0.0 0.0 0.00 0.00 0.00 93 1012.7
20260509130045 53 0 0.0 0.0 0.00 0.00 0.00 93 1012.7
20260509125533 53 0 0.0 0.0 0.00 0.00 0.00 94 1012.8
20260509125034 53 0 0.0 0.0 0.00 0.00 0.00 94 1012.7
20260509124558 53 0 0.0 0.0 0.00 0.00 0.00 94 1012.6
20260509124036 53 0 0.0 0.0 0.00 0.00 0.00 94 1012.8
20260509123533 53 0 0.0 0.0 0.00 0.00 0.00 94 1012.6
20260509123102 53 0 0.0 0.0 0.00 0.00 0.00 94 1012.7
20260509122534 53 0 0.0 0.0 0.00 0.00 0.00 94 1012.7
20260509122034 53 0 0.0 0.0 0.00 0.00 0.00 94 1012.6
20260509121545 53 0 0.0 0.0 0.00 0.00 0.00 94 1012.5
20260509121036 53 0 0.0 0.0 0.00 0.00 0.00 94 1012.5
20260509120534 52 0 0.0 0.0 0.00 0.00 0.00 94 1012.7
20260509120054 52 0 0.0 0.0 0.00 0.00 0.00 94 1012.8
20260509115535 52 0 0.0 0.0 0.00 0.00 0.00 94 1012.8
20260509115034 52 0 0.0 0.0 0.00 0.00 0.00 94 1012.9
20260509114544 52 0 0.0 0.0 0.00 0.00 0.00 94 1013.1
20260509114034 52 0 0.0 0.0 0.00 0.00 0.00 94 1012.9
20260509113541 52 0 0.0 0.0 0.00 0.00 0.00 94 1013.1
20260509113045 52 0 0.0 0.0 0.00 0.00 0.00 94 1013.1
20260509112533 52 0 0.0 0.0 0.00 0.00 0.00 94 1013.1
20260509112033 51 0 0.0 0.0 0.00 0.00 0.00 94 1013.2
20260509111543 51 0 0.0 0.0 0.00 0.00 0.00 94 1013.1
20260509111036 51 0 0.0 0.0 0.00 0.00 0.00 94 1013.1
20260509110534 51 0 0.0 0.0 0.00 0.00 0.00 94 1013.1
20260509110049 51 0 0.0 0.0 0.00 0.00 0.00 94 1013.0
20260509105533 51 0 0.0 0.0 0.00 0.00 0.00 94 1012.8
20260509105034 51 0 0.0 0.0 0.00 0.00 0.00 94 1013.0
20260509104548 50 0 0.0 0.0 0.00 0.00 0.00 94 1012.8
20260509104033 50 0 0.0 0.0 0.00 0.00 0.00 93 1012.6
20260509103535 50 0 0.0 0.0 0.00 0.00 0.00 94 1012.8
20260509103047 50 0 0.0 0.0 0.00 0.00 0.00 94 1012.6
20260509102534 50 0 0.0 0.0 0.00 0.00 0.00 94 1012.5
20260509102034 50 0 0.0 0.0 0.00 0.00 0.00 94 1012.5
20260509101551 50 0 0.0 0.0 0.00 0.00 0.00 94 1012.7
20260509101033 50 0 0.0 0.0 0.00 0.00 0.00 93 1012.6
20260509100533 50 0 0.0 0.0 0.00 0.00 0.00 93 1012.5
20260509100055 50 0 0.0 0.0 0.00 0.00 0.00 93 1012.6
20260509095532 50 0 0.0 0.0 0.00 0.00 0.00 93 1012.8
20260509095033 50 0 0.0 0.0 0.00 0.00 0.00 93 1012.8
20260509094551 50 0 0.0 0.0 0.00 0.00 0.00 93 1012.9
20260509094034 49 0 0.0 0.0 0.00 0.00 0.00 93 1013.1
20260509093534 49 0 0.0 0.0 0.00 0.00 0.00 93 1013.1
20260509093045 49 0 0.0 0.0 0.00 0.00 0.00 93 1013.1
20260509092533 49 0 0.0 0.0 0.00 0.00 0.00 93 1013.0
20260509092033 49 0 0.0 0.0 0.00 0.00 0.00 93 1012.9
20260509091545 49 0 0.0 0.0 0.00 0.00 0.00 93 1013.0
20260509091033 50 0 0.0 0.0 0.00 0.00 0.00 92 1012.8
20260509090539 50 0 0.0 0.0 0.00 0.00 0.00 93 1012.6
20260509090048 50 0 0.0 0.0 0.00 0.00 0.00 93 1012.7
20260509085533 50 0 0.0 0.0 0.00 0.00 0.00 93 1012.5
20260509085036 50 0 0.0 0.0 0.00 0.00 0.00 93 1012.6
20260509084541 50 0 0.0 0.0 0.00 0.00 0.00 93 1012.7
20260509084035 50 0 0.0 0.0 0.00 0.00 0.00 93 1012.7
20260509083533 50 0 0.0 0.0 0.00 0.00 0.00 93 1012.5
20260509083044 50 0 0.0 0.0 0.00 0.00 0.00 93 1012.5
20260509082534 50 0 0.0 0.0 0.00 0.00 0.00 93 1012.4
20260509082034 50 0 0.0 0.0 0.00 0.00 0.00 93 1012.4
20260509081548 50 0 0.0 0.0 0.00 0.00 0.00 93 1012.4
20260509081036 50 0 0.0 0.0 0.00 0.00 0.00 93 1012.4
20260509080533 50 0 0.0 0.0 0.00 0.00 0.00 93 1012.3
20260509080046 50 0 0.0 0.0 0.00 0.00 0.00 93 1012.4
20260509075533 50 0 0.0 0.0 0.00 0.00 0.00 93 1012.5
20260509075033 49 0 0.0 0.0 0.00 0.00 0.00 92 1012.5
20260509074545 49 0 0.0 0.0 0.00 0.00 0.00 92 1012.8
20260509074033 49 0 0.0 0.0 0.00 0.00 0.00 92 1012.9
20260509073533 49 0 0.0 0.0 0.00 0.00 0.00 92 1012.8
20260509073042 49 0 0.0 0.0 0.00 0.00 0.00 92 1012.7
20260509072539 49 0 0.0 0.0 0.00 0.00 0.00 92 1012.7
20260509072035 49 0 0.0 0.0 0.00 0.00 0.00 92 1012.8
20260509071555 49 0 0.0 0.0 0.00 0.00 0.00 92 1012.9
20260509071037 50 0 0.0 0.0 0.00 0.00 0.00 92 1013.1
20260509070536 50 0 0.0 0.0 0.00 0.00 0.00 92 1013.2
20260509070046 49 0 0.0 0.0 0.00 0.00 0.00 92 1013.1
20260509065536 49 0 0.0 0.0 0.00 0.00 0.00 92 1013.1
20260509065033 49 0 0.0 0.0 0.00 0.00 0.00 92 1013.3
20260509064545 50 0 0.0 0.0 0.00 0.00 0.00 92 1013.4
20260509064034 50 0 0.0 0.0 0.00 0.00 0.00 92 1013.3
20260509063535 50 0 0.0 0.0 0.00 0.00 0.00 91 1013.4
20260509063044 50 0 0.0 0.0 0.00 0.00 0.00 91 1013.4
20260509062533 50 0 0.0 0.0 0.00 0.00 0.00 92 1013.6
20260509062034 50 0 0.0 0.0 0.00 0.00 0.00 92 1013.5
20260509061547 50 0 0.0 0.0 0.00 0.00 0.00 92 1013.7
20260509061033 50 0 0.0 0.0 0.00 0.00 0.00 92 1013.7
20260509060533 50 0 0.0 0.0 0.00 0.00 0.00 91 1013.7
20260509055536 50 0 0.0 0.0 0.00 0.00 0.00 91 1014.0
20260509055037 50 0 0.0 0.0 0.00 0.00 0.00 92 1014.1
20260509054601 50 0 0.0 0.0 0.00 0.00 0.00 92 1014.0
20260509054039 50 0 0.0 0.0 0.00 0.00 0.00 91 1014.1
20260509053534 50 0 0.0 0.0 0.00 0.00 0.00 91 1014.0
20260509053044 50 0 0.0 0.0 0.00 0.00 0.00 90 1014.0
20260509052533 50 0 0.0 0.0 0.00 0.00 0.00 90 1014.1
20260509052033 50 0 0.0 0.0 0.00 0.00 0.00 90 1014.2
20260509051544 50 0 0.0 0.0 0.00 0.00 0.00 90 1014.3
20260509051034 50 0 0.0 0.0 0.00 0.00 0.00 90 1014.4
20260509050533 50 0 0.0 0.0 0.00 0.00 0.00 90 1014.4
20260509050055 50 0 0.0 0.0 0.00 0.00 0.00 90 1014.6
20260509045533 51 0 0.0 0.0 0.00 0.00 0.00 90 1014.6
20260509045033 51 0 0.0 0.0 0.00 0.00 0.00 90 1014.6
20260509044551 51 0 0.0 0.0 0.00 0.00 0.00 90 1014.7
20260509044033 51 0 0.0 1.0 0.00 0.00 0.00 90 1014.6
20260509043532 51 0 0.0 2.0 0.00 0.00 0.00 89 1014.5
20260509043046 51 0 0.0 2.0 0.00 0.00 0.00 89 1014.6
20260509042532 51 292 0.0 2.0 0.00 0.00 0.00 89 1014.6
20260509042034 51 0 0.0 2.0 0.00 0.00 0.00 89 1014.7
20260509041547 51 0 0.0 2.0 0.00 0.00 0.00 89 1014.7
20260509041034 51 0 0.0 2.0 0.00 0.00 0.00 89 1014.8
20260509040536 51 292 0.0 2.0 0.00 0.00 0.00 89 1014.7
20260509040055 51 0 0.0 1.0 0.00 0.00 0.00 89 1015.0
20260509035533 51 0 0.0 1.0 0.00 0.00 0.00 89 1015.0
20260509035034 51 0 0.0 1.0 0.00 0.00 0.00 88 1015.1
20260509034548 51 0 0.0 2.0 0.00 0.00 0.00 88 1015.1
20260509034033 52 0 0.0 2.0 0.00 0.00 0.00 88 1015.1
20260509033534 52 291 0.0 2.0 0.00 0.00 0.00 88 1015.2
20260509033047 52 0 0.0 0.0 0.00 0.00 0.00 87 1015.2
20260509032533 52 0 0.0 0.0 0.00 0.00 0.00 88 1015.3
20260509032034 52 0 0.0 0.0 0.00 0.00 0.00 88 1015.5
20260509031556 52 0 0.0 1.0 0.00 0.00 0.00 87 1015.4
20260509031037 52 0 0.0 1.0 0.00 0.00 0.00 87 1015.5
20260509030537 52 291 0.0 1.0 0.00 0.00 0.00 87 1015.5
20260509030052 52 0 0.0 1.0 0.00 0.00 0.00 86 1015.4
20260509025533 53 0 0.0 1.0 0.00 0.00 0.00 86 1015.3
20260509025033 53 291 0.0 1.0 0.00 0.00 0.00 86 1015.3
20260509024545 53 0 0.0 0.0 0.00 0.00 0.00 85 1015.5
20260509024033 53 0 0.0 1.0 0.00 0.00 0.00 86 1015.3
20260509023533 53 0 0.0 1.0 0.00 0.00 0.00 85 1015.3
20260509023055 54 0 0.0 1.0 0.00 0.00 0.00 85 1015.4
20260509022533 54 0 0.0 0.0 0.00 0.00 0.00 84 1015.3
20260509022033 54 0 0.0 1.0 0.00 0.00 0.00 83 1015.2
20260509021546 54 0 0.0 1.0 0.00 0.00 0.00 84 1015.2
20260509021035 54 0 0.0 1.0 0.00 0.00 0.00 83 1015.3
20260509020533 55 0 0.0 1.0 0.00 0.00 0.00 83 1015.0
20260509020050 55 0 0.0 1.0 0.00 0.00 0.00 83 1015.0
20260509015534 55 0 0.0 1.0 0.00 0.00 0.00 82 1015.0
20260509015036 56 0 0.0 2.0 0.00 0.00 0.00 82 1014.7
20260509014543 56 0 0.0 2.0 0.00 0.00 0.00 81 1014.8
20260509014037 56 0 0.0 2.0 0.00 0.00 0.00 80 1014.8
20260509013533 57 0 0.0 1.0 0.00 0.00 0.00 80 1015.0
20260509013108 57 0 0.0 1.0 0.00 0.00 0.00 79 1015.1
20260509012533 57 0 0.0 1.0 0.00 0.00 0.00 78 1015.0
20260509012033 57 0 0.0 1.0 0.00 0.00 0.00 77 1014.8
20260509011548 57 0 0.0 2.0 0.00 0.00 0.00 77 1014.8
20260509011032 57 0 0.0 2.0 0.00 0.00 0.00 77 1014.7
20260509010533 57 289 1.0 2.0 0.00 0.00 0.00 77 1014.9
20260509010048 57 288 0.0 2.0 0.00 0.00 0.00 77 1014.8
20260509005533 58 0 0.0 0.0 0.00 0.00 0.00 77 1014.9
20260509005033 58 0 0.0 0.0 0.00 0.00 0.00 76 1014.6
20260509004553 58 0 0.0 0.0 0.00 0.00 0.00 76 1014.9
20260509004033 58 0 0.0 2.0 0.00 0.00 0.00 76 1014.8
20260509003534 59 0 0.0 2.0 0.00 0.00 0.00 74 1014.6
20260509003043 59 276 0.0 2.0 0.00 0.00 0.00 74 1014.5
20260509002534 59 0 0.0 3.0 0.00 0.00 0.00 73 1014.6
20260509002033 59 279 0.0 3.0 0.00 0.00 0.00 71 1014.6
20260509001545 60 267 1.0 4.0 0.00 0.00 0.00 71 1014.7
20260509001035 60 0 0.0 4.0 0.00 0.00 0.00 70 1014.4
20260509000533 60 0 0.0 4.0 0.00 0.00 0.00 69 1014.5
20260509000041 60 286 1.0 3.0 0.00 0.00 0.00 69 1014.5
20260508235533 61 290 0.0 3.0 0.00 0.00 0.00 67 1014.5
20260508235033 61 197 0.0 4.0 0.00 0.00 0.00 66 1014.4
20260508234545 61 277 2.0 4.0 0.00 0.00 0.00 65 1014.2
20260508234037 61 265 2.0 7.0 0.00 0.00 0.00 65 1014.3
20260508233537 61 250 1.0 7.0 0.00 0.00 0.00 66 1014.3
20260508233044 62 256 1.0 7.0 0.00 0.00 0.00 66 1014.3
20260508232536 62 259 1.0 4.0 0.00 0.00 0.00 67 1014.3
20260508232035 62 253 1.0 3.0 0.00 0.00 0.00 67 1014.3
20260508231550 62 0 0.0 3.0 0.00 0.00 0.00 66 1014.2
20260508231036 62 281 1.0 3.0 0.00 0.00 0.00 65 1014.2
20260508230533 63 278 0.0 4.0 0.00 0.00 0.00 66 1014.2
20260508230055 63 261 1.0 4.0 0.00 0.00 0.00 64 1014.3
20260508225533 63 258 1.0 4.0 0.00 0.00 0.00 65 1014.2
20260508225033 63 321 0.0 4.0 0.00 0.00 0.00 64 1014.2
20260508224604 63 266 0.0 6.0 0.00 0.00 0.00 64 1014.1
20260508224034 63 0 1.0 6.0 0.00 0.00 0.00 63 1014.1
20260508223540 64 0 2.0 6.0 0.00 0.00 0.00 64 1014.0
20260508223046 64 254 1.0 4.0 0.00 0.00 0.00 63 1014.1
20260508222535 64 0 0.0 5.0 0.00 0.00 0.00 63 1014.1
20260508222033 64 275 1.0 8.0 0.00 0.00 0.00 63 1014.0
20260508221557 64 0 1.0 8.0 0.00 0.00 0.00 62 1014.2
20260508221034 64 261 2.0 8.0 0.00 0.00 0.00 62 1014.2
20260508220533 64 0 1.0 8.0 0.00 0.00 0.00 61 1014.1
20260508220046 65 268 0.0 6.0 0.00 0.00 0.00 61 1014.1
20260508215534 65 0 1.0 6.0 0.00 0.00 0.00 61 1014.0
20260508215033 65 265 2.0 6.0 0.00 0.00 0.00 60 1014.0
20260508214541 65 0 0.0 4.0 0.00 0.00 0.00 60 1013.8
20260508214037 65 268 1.0 7.0 0.00 0.00 0.00 59 1014.0
20260508213537 65 254 0.0 7.0 0.00 0.00 0.00 59 1014.1
20260508213107 66 258 1.0 7.0 0.00 0.00 0.00 58 1014.0
20260508212533 66 268 1.0 7.0 0.00 0.00 0.00 56 1014.1
20260508212033 66 286 2.0 7.0 0.00 0.00 0.00 54 1014.0
20260508211549 67 271 2.0 7.0 0.00 0.00 0.00 55 1014.0
20260508211036 67 256 0.0 7.0 0.00 0.00 0.00 58 1014.0
20260508210536 67 267 1.0 7.0 0.00 0.00 0.00 58 1014.0
20260508210053 67 263 1.0 7.0 0.00 0.00 0.00 55 1014.0
20260508205535 67 263 3.0 7.0 0.00 0.00 0.00 53 1014.1
20260508205035 67 313 1.0 5.0 0.00 0.00 0.00 52 1013.9
20260508204557 67 307 0.0 8.0 0.00 0.00 0.00 52 1013.9
20260508204033 67 275 3.0 8.0 0.00 0.00 0.00 51 1014.0
20260508203533 67 245 1.0 7.0 0.00 0.00 0.00 52 1013.9
20260508203042 67 279 1.0 4.0 0.00 0.00 0.00 53 1014.0
20260508202534 67 10 1.0 6.0 0.00 0.00 0.00 52 1014.1
20260508202033 67 215 1.0 6.0 0.00 0.00 0.00 52 1014.2
20260508201543 68 252 0.0 6.0 0.00 0.00 0.00 54 1014.1
20260508201034 68 252 1.0 6.0 0.00 0.00 0.00 52 1014.2
20260508200534 67 0 2.0 5.0 0.00 0.00 0.00 53 1014.3
20260508200052 67 0 0.0 5.0 0.00 0.00 0.00 57 1014.4
20260508195535 68 264 1.0 11.0 0.00 0.00 0.00 53 1014.5
20260508195035 68 321 1.0 11.0 0.00 0.00 0.00 54 1014.4
20260508194545 68 251 2.0 7.0 0.00 0.00 0.00 50 1014.4
20260508194035 68 264 0.0 4.0 0.00 0.00 0.00 49 1014.4
20260508193535 68 0 1.0 7.0 0.00 0.00 0.00 51 1014.4
20260508193120 67 243 0.0 7.0 0.00 0.00 0.00 54 1014.4
20260508192536 68 262 2.0 7.0 0.00 0.00 0.00 50 1014.6
20260508192033 67 0 0.0 6.0 0.00 0.00 0.00 49 1014.7
20260508191542 67 252 1.0 6.0 0.00 0.00 0.00 49 1014.9
20260508191035 67 0 1.0 8.0 0.00 0.00 0.00 47 1015.0
20260508190533 68 288 1.0 8.0 0.00 0.00 0.00 48 1015.3
20260508190048 68 257 3.0 8.0 0.00 0.00 0.00 49 1015.5
20260508185534 69 257 1.0 5.0 0.00 0.00 0.00 49 1015.6
20260508185035 68 0 0.0 5.0 0.00 0.00 0.00 52 1015.7
20260508184602 67 38 0.0 4.0 0.00 0.00 0.00 48 1015.8
20260508184034 67 275 1.0 4.0 0.00 0.00 0.00 54 1015.7
20260508183536 67 0 1.0 3.0 0.00 0.00 0.00 48 1015.5
20260508183045 67 79 1.0 4.0 0.00 0.00 0.00 52 1015.8
20260508182536 67 80 0.0 7.0 0.00 0.00 0.00 54 1015.7
20260508182035 67 277 1.0 7.0 0.00 0.00 0.00 53 1015.8
20260508181543 67 259 1.0 7.0 0.00 0.00 0.00 47 1015.9
20260508181035 67 265 0.0 7.0 0.00 0.00 0.00 55 1016.0
20260508180535 67 252 0.0 8.0 0.00 0.00 0.00 52 1016.1
20260508180048 66 27 2.0 8.0 0.00 0.00 0.00 46 1016.1
20260508175533 67 270 0.0 4.0 0.00 0.19 0.00 47 1016.1
20260508175033 66 261 1.0 4.0 0.00 0.19 0.00 45 1016.1
20260508174603 66 100 1.0 7.0 0.00 0.19 0.00 49 1016.2
20260508174036 66 74 1.0 7.0 0.00 0.19 0.00 46 1016.1
20260508173534 66 250 1.0 7.0 0.00 0.19 0.00 46 1016.1
20260508173044 65 0 1.0 7.0 0.00 0.19 0.00 45 1016.3
20260508172536 66 252 1.0 11.0 0.00 0.19 0.00 47 1016.2
20260508172036 66 0 2.0 11.0 0.00 0.19 0.00 48 1016.2
20260508171607 66 280 0.0 9.0 0.00 0.19 0.00 56 1016.4